Time,TemperatureF,DewpointF,PressureIn,WindDirection,WindDirectionDegrees,WindSpeedMPH,WindSpeedGustMPH,Humidity,HourlyPrecipIn,Conditions,Clouds,dailyrainin,SoftwareType,DateUTC
2013-09-11 00:02:00,68.4,62.0,29.99,NW,315,0.0,0.0,80,0.00,CLR,,0.00,WeatherDisplay:10.37,2013-09-11 05:02:00,
2013-09-11 00:07:00,68.1,62.0,29.99,NW,315,0.0,0.0,81,0.00,CLR,,0.00,WeatherDisplay:10.37,2013-09-11 05:07:00,
2013-09-11 00:12:00,67.9,62.2,29.99,NW,315,0.0,0.0,82,0.00,CLR,,0.00,WeatherDisplay:10.37,2013-09-11 05:12:00,
2013-09-11 00:17:00,67.8,62.1,29.98,NW,315,0.0,0.0,82,0.00,CLR,,0.00,WeatherDisplay:10.37,2013-09-11 05:17:00,
2013-09-11 00:22:00,67.6,62.3,29.98,NW,315,0.0,0.0,83,0.00,CLR,,0.00,WeatherDisplay:10.37,2013-09-11 05:22:00,
2013-09-11 00:27:00,67.4,62.1,29.98,NW,315,0.0,0.0,83,0.00,CLR,,0.00,WeatherDisplay:10.37,2013-09-11 05:27:00,
2013-09-11 00:32:00,67.1,61.8,29.99,NW,315,0.0,0.0,83,0.00,CLR,,0.00,WeatherDisplay:10.37,2013-09-11 05:32:00,
2013-09-11 00:37:00,66.8,61.8,29.99,NW,315,0.0,0.0,84,0.00,CLR,,0.00,WeatherDisplay:10.37,2013-09-11 05:37:00,
2013-09-11 00:42:00,66.6,61.6,29.99,NW,315,0.0,0.0,84,0.00,CLR,,0.00,WeatherDisplay:10.37,2013-09-11 05:42:00,
2013-09-11 00:47:00,66.4,61.4,29.99,NW,315,0.0,0.0,84,0.00,CLR,,0.00,WeatherDisplay:10.37,2013-09-11 05:47:00,
2013-09-11 00:52:00,66.1,61.1,29.99,NW,315,0.0,0.0,84,0.00,CLR,,0.00,WeatherDisplay:10.37,2013-09-11 05:52:00,
2013-09-11 00:57:00,66.1,61.1,29.99,NW,315,0.0,0.0,84,0.00,CLR,,0.00,WeatherDisplay:10.37,2013-09-11 05:57:00,
2013-09-11 01:02:00,66.0,61.0,29.99,NW,315,0.0,0.0,84,0.00,CLR,,0.00,WeatherDisplay:10.37,2013-09-11 06:02:00,
2013-09-11 01:07:00,66.0,61.0,29.99,NW,315,0.0,0.0,84,0.00,CLR,,0.00,WeatherDisplay:10.37,2013-09-11 06:07:00,
2013-09-11 01:12:00,66.1,61.1,29.99,NW,315,0.0,0.0,84,0.00,CLR,,0.00,WeatherDisplay:10.37,2013-09-11 06:12:00,
2013-09-11 01:17:00,66.1,61.1,29.99,NW,315,0.0,0.0,84,0.00,CLR,,0.00,WeatherDisplay:10.37,2013-09-11 06:17:00,
2013-09-11 01:22:00,66.1,61.1,29.99,NW,315,0.0,0.0,84,0.00,CLR,,0.00,WeatherDisplay:10.37,2013-09-11 06:22:00,
2013-09-11 01:28:00,66.0,61.0,29.99,NW,315,0.0,0.0,84,0.00,CLR,,0.00,WeatherDisplay:10.37,2013-09-11 06:28:00,
2013-09-11 01:33:00,65.8,61.2,29.99,NW,315,0.0,0.0,85,0.00,CLR,,0.00,WeatherDisplay:10.37,2013-09-11 06:33:00,
2013-09-11 01:38:00,65.6,61.0,29.99,NW,315,0.0,0.0,85,0.00,CLR,,0.00,WeatherDisplay:10.37,2013-09-11 06:38:00,
2013-09-11 01:43:00,65.6,61.0,29.99,NW,315,0.0,0.0,85,0.00,CLR,,0.00,WeatherDisplay:10.37,2013-09-11 06:43:00,
2013-09-11 01:48:00,65.5,61.2,29.99,NW,315,0.0,0.0,86,0.00,CLR,,0.00,WeatherDisplay:10.37,2013-09-11 06:48:00,
2013-09-11 01:53:00,65.5,61.2,29.99,NW,315,0.0,0.0,86,0.00,CLR,,0.00,WeatherDisplay:10.37,2013-09-11 06:53:00,
2013-09-11 01:58:00,65.5,61.2,29.99,NW,315,0.0,0.0,86,0.00,CLR,,0.00,WeatherDisplay:10.37,2013-09-11 06:58:00,
2013-09-11 02:03:00,65.5,61.2,29.99,NW,315,0.0,0.0,86,0.00,CLR,,0.00,WeatherDisplay:10.37,2013-09-11 07:03:00,
2013-09-11 02:08:00,65.3,61.0,29.99,NW,315,0.0,0.0,86,0.00,CLR,,0.00,WeatherDisplay:10.37,2013-09-11 07:08:00,
2013-09-11 02:13:00,65.3,61.0,29.99,NW,315,0.0,0.0,86,0.00,CLR,,0.00,WeatherDisplay:10.37,2013-09-11 07:13:00,
2013-09-11 02:18:00,65.3,61.0,29.99,NW,315,0.0,0.0,86,0.00,CLR,,0.00,WeatherDisplay:10.37,2013-09-11 07:18:00,
2013-09-11 02:23:00,65.2,60.9,29.99,NW,315,0.0,0.0,86,0.00,CLR,,0.00,WeatherDisplay:10.37,2013-09-11 07:23:00,
2013-09-11 02:28:00,65.3,61.0,29.99,NW,315,0.0,0.0,86,0.00,CLR,,0.00,WeatherDisplay:10.37,2013-09-11 07:28:00,
2013-09-11 02:33:00,65.2,60.9,29.99,NW,315,0.0,0.0,86,0.00,CLR,,0.00,WeatherDisplay:10.37,2013-09-11 07:33:00,
2013-09-11 02:38:00,65.2,60.9,29.99,NW,315,0.0,0.0,86,0.00,CLR,,0.00,WeatherDisplay:10.37,2013-09-11 07:38:00,
2013-09-11 02:43:00,65.2,60.9,29.99,NW,315,0.0,0.0,86,0.00,CLR,,0.00,WeatherDisplay:10.37,2013-09-11 07:43:00,
2013-09-11 02:48:00,65.2,61.2,29.99,NW,315,0.0,0.0,87,0.00,CLR,,0.00,WeatherDisplay:10.37,2013-09-11 07:48:00,
2013-09-11 02:53:00,65.2,61.2,29.99,NW,315,0.0,0.0,87,0.00,CLR,,0.00,WeatherDisplay:10.37,2013-09-11 07:53:00,
2013-09-11 02:58:00,65.3,61.3,29.99,NW,315,0.0,0.0,87,0.00,CLR,,0.00,WeatherDisplay:10.37,2013-09-11 07:58:00,
2013-09-11 03:03:00,65.2,61.2,29.99,NW,315,0.0,0.0,87,0.00,CLR,,0.00,WeatherDisplay:10.37,2013-09-11 08:03:00,
2013-09-11 03:08:00,65.0,61.0,29.99,NW,315,0.0,0.0,87,0.00,CLR,,0.00,WeatherDisplay:10.37,2013-09-11 08:08:00,
2013-09-11 03:13:00,65.0,61.0,29.99,NW,315,0.0,0.0,87,0.00,CLR,,0.00,WeatherDisplay:10.37,2013-09-11 08:13:00,
2013-09-11 03:18:00,65.0,61.4,30.00,NW,315,0.0,0.0,88,0.00,CLR,,0.00,WeatherDisplay:10.37,2013-09-11 08:18:00,
2013-09-11 03:23:00,64.8,61.2,30.00,NW,315,0.0,0.0,88,0.00,CLR,,0.00,WeatherDisplay:10.37,2013-09-11 08:23:00,
2013-09-11 03:28:00,64.7,61.1,30.00,NW,315,0.0,0.0,88,0.00,CLR,,0.00,WeatherDisplay:10.37,2013-09-11 08:28:00,
2013-09-11 03:33:00,64.7,61.1,29.99,NW,315,0.0,0.0,88,0.00,CLR,,0.00,WeatherDisplay:10.37,2013-09-11 08:33:00,
2013-09-11 03:38:00,64.5,61.2,29.99,NW,315,0.0,0.0,89,0.00,CLR,,0.00,WeatherDisplay:10.37,2013-09-11 08:38:00,
2013-09-11 03:43:00,64.3,61.0,29.99,NW,315,0.0,0.0,89,0.00,CLR,,0.00,WeatherDisplay:10.37,2013-09-11 08:43:00,
2013-09-11 03:48:00,64.3,61.0,30.00,NW,315,0.0,0.0,89,0.00,CLR,,0.00,WeatherDisplay:10.37,2013-09-11 08:48:00,
2013-09-11 03:53:00,64.2,60.9,30.00,NW,315,0.0,0.0,89,0.00,CLR,,0.00,WeatherDisplay:10.37,2013-09-11 08:53:00,
2013-09-11 03:58:00,64.2,60.9,30.00,NW,315,0.0,0.0,89,0.00,CLR,,0.00,WeatherDisplay:10.37,2013-09-11 08:58:00,
2013-09-11 04:03:00,64.2,60.9,30.00,NW,315,0.0,0.0,89,0.00,CLR,,0.00,WeatherDisplay:10.37,2013-09-11 09:03:00,
2013-09-11 04:08:00,64.0,60.7,30.00,NW,315,0.0,0.0,89,0.00,CLR,,0.00,WeatherDisplay:10.37,2013-09-11 09:08:00,
2013-09-11 04:13:00,63.9,60.6,30.00,NW,315,0.0,0.0,89,0.00,CLR,,0.00,WeatherDisplay:10.37,2013-09-11 09:13:00,
2013-09-11 04:18:00,63.7,60.4,30.00,NW,315,0.0,0.0,89,0.00,CLR,,0.00,WeatherDisplay:10.37,2013-09-11 09:18:00,
2013-09-11 04:23:00,63.7,60.7,30.00,NW,315,0.0,0.0,90,0.00,CLR,,0.00,WeatherDisplay:10.37,2013-09-11 09:23:00,
2013-09-11 04:28:00,63.7,60.7,30.00,NW,315,0.0,0.0,90,0.00,CLR,,0.00,WeatherDisplay:10.37,2013-09-11 09:28:00,
2013-09-11 04:33:00,63.5,60.5,30.00,NW,315,0.0,0.0,90,0.00,CLR,,0.00,WeatherDisplay:10.37,2013-09-11 09:33:00,
2013-09-11 04:38:00,63.5,60.5,30.00,NW,315,0.0,0.0,90,0.00,CLR,,0.00,WeatherDisplay:10.37,2013-09-11 09:38:00,
2013-09-11 04:43:00,63.4,60.4,30.00,NW,315,0.0,0.0,90,0.00,CLR,,0.00,WeatherDisplay:10.37,2013-09-11 09:43:00,
2013-09-11 04:48:00,63.2,60.2,30.00,NW,315,0.0,0.0,90,0.00,CLR,,0.00,WeatherDisplay:10.37,2013-09-11 09:48:00,
2013-09-11 04:53:00,63.2,60.2,30.00,NW,315,0.0,0.0,90,0.00,CLR,,0.00,WeatherDisplay:10.37,2013-09-11 09:53:00,
2013-09-11 04:58:00,63.1,60.1,30.00,NW,315,0.0,0.0,90,0.00,CLR,,0.00,WeatherDisplay:10.37,2013-09-11 09:58:00,
2013-09-11 05:03:00,63.1,60.4,30.01,NW,315,0.0,0.0,91,0.00,CLR,,0.00,WeatherDisplay:10.37,2013-09-11 10:03:00,
2013-09-11 05:08:00,63.1,60.4,30.01,NW,315,0.0,0.0,91,0.00,CLR,,0.00,WeatherDisplay:10.37,2013-09-11 10:08:00,
2013-09-11 05:13:00,63.1,60.4,30.01,NW,315,0.0,0.0,91,0.00,CLR,,0.00,WeatherDisplay:10.37,2013-09-11 10:13:00,
2013-09-11 05:18:00,62.9,60.2,30.01,NW,315,0.0,0.0,91,0.00,CLR,,0.00,WeatherDisplay:10.37,2013-09-11 10:18:00,
2013-09-11 05:23:00,62.9,60.2,30.01,NW,315,0.0,0.0,91,0.00,CLR,,0.00,WeatherDisplay:10.37,2013-09-11 10:23:00,
2013-09-11 05:28:00,63.2,60.5,30.01,NW,315,0.0,0.0,91,0.00,CLR,,0.00,WeatherDisplay:10.37,2013-09-11 10:28:00,
2013-09-11 05:33:00,63.5,60.8,30.01,SW,218,3.5,3.5,91,0.00,CLR,,0.00,WeatherDisplay:10.37,2013-09-11 10:33:00,
2013-09-11 05:38:00,63.9,60.9,30.01,SW,218,0.0,0.0,90,0.00,CLR,,0.00,WeatherDisplay:10.37,2013-09-11 10:38:00,
2013-09-11 05:43:00,64.0,61.0,30.01,SW,218,0.0,0.0,90,0.00,CLR,,0.00,WeatherDisplay:10.37,2013-09-11 10:43:00,
2013-09-11 05:48:00,64.0,60.7,30.01,SW,218,0.0,0.0,89,0.00,CLR,,0.00,WeatherDisplay:10.37,2013-09-11 10:48:00,
2013-09-11 05:53:00,63.9,60.6,30.01,SW,218,0.0,0.0,89,0.00,CLR,,0.00,WeatherDisplay:10.37,2013-09-11 10:53:00,
2013-09-11 05:58:00,63.7,60.4,30.01,SW,218,0.0,0.0,89,0.00,CLR,,0.00,WeatherDisplay:10.37,2013-09-11 10:58:00,
2013-09-11 06:03:00,63.5,60.2,30.01,SW,218,0.0,0.0,89,0.00,CLR,,0.00,WeatherDisplay:10.37,2013-09-11 11:03:00,
2013-09-11 06:08:00,63.2,59.9,30.01,SW,218,0.0,0.0,89,0.00,CLR,,0.00,WeatherDisplay:10.37,2013-09-11 11:08:00,
2013-09-11 06:13:00,62.9,59.6,30.01,SW,218,0.0,0.0,89,0.00,CLR,,0.00,WeatherDisplay:10.37,2013-09-11 11:13:00,
2013-09-11 06:18:00,62.7,59.7,30.01,SW,218,0.0,0.0,90,0.00,CLR,,0.00,WeatherDisplay:10.37,2013-09-11 11:18:00,
2013-09-11 06:23:00,62.6,59.6,30.01,SW,218,0.0,0.0,90,0.00,CLR,,0.00,WeatherDisplay:10.37,2013-09-11 11:23:00,
2013-09-11 06:28:00,62.4,59.4,30.01,SW,218,0.0,0.0,90,0.00,CLR,,0.00,WeatherDisplay:10.37,2013-09-11 11:28:00,
2013-09-11 06:33:00,62.1,59.1,30.02,SW,218,0.0,0.0,90,0.00,CLR,,0.00,WeatherDisplay:10.37,2013-09-11 11:33:00,
2013-09-11 06:38:00,62.0,59.0,30.02,SW,218,0.0,0.0,90,0.00,CLR,,0.00,WeatherDisplay:10.37,2013-09-11 11:38:00,
2013-09-11 06:43:00,62.0,59.3,30.02,SW,218,0.0,0.0,91,0.00,CLR,,0.00,WeatherDisplay:10.37,2013-09-11 11:43:00,
2013-09-11 06:48:00,62.0,59.3,30.01,SW,218,0.0,0.0,91,0.00,CLR,,0.00,WeatherDisplay:10.37,2013-09-11 11:48:00,
2013-09-11 06:53:00,62.1,59.4,30.02,SW,218,0.0,0.0,91,0.00,CLR,,0.00,WeatherDisplay:10.37,2013-09-11 11:53:00,
2013-09-11 06:58:00,62.0,59.3,30.01,SW,218,0.0,0.0,91,0.00,CLR,,0.00,WeatherDisplay:10.37,2013-09-11 11:58:00,
2013-09-11 07:04:00,62.0,59.3,30.02,SW,218,0.0,0.0,91,0.00,CLR,,0.00,WeatherDisplay:10.37,2013-09-11 12:04:00,
2013-09-11 07:09:00,62.1,59.7,30.02,SW,218,0.0,0.0,92,0.00,CLR,,0.00,WeatherDisplay:10.37,2013-09-11 12:09:00,
2013-09-11 07:14:00,62.3,59.6,30.02,SW,218,1.1,1.1,91,0.00,CLR,,0.00,WeatherDisplay:10.37,2013-09-11 12:14:00,
2013-09-11 07:19:00,62.4,59.7,30.02,SSW,192,4.0,4.0,91,0.00,CLR,,0.00,WeatherDisplay:10.37,2013-09-11 12:19:00,
2013-09-11 07:24:00,62.6,59.9,30.02,SSW,192,2.0,2.0,91,0.00,CLR,,0.00,WeatherDisplay:10.37,2013-09-11 12:24:00,
2013-09-11 07:29:00,62.7,59.7,30.02,SSW,192,0.0,0.0,90,0.00,CLR,,0.00,WeatherDisplay:10.37,2013-09-11 12:29:00,
2013-09-11 07:34:00,62.9,59.9,30.02,SSW,192,0.0,0.0,90,0.00,CLR,,0.00,WeatherDisplay:10.37,2013-09-11 12:34:00,
2013-09-11 07:39:00,62.9,59.9,30.02,SSW,192,0.0,0.0,90,0.00,CLR,,0.00,WeatherDisplay:10.37,2013-09-11 12:39:00,
2013-09-11 07:44:00,62.9,59.9,30.02,SSW,192,0.0,0.0,90,0.00,CLR,,0.00,WeatherDisplay:10.37,2013-09-11 12:44:00,
2013-09-11 07:49:00,62.9,59.9,30.02,SSW,192,0.0,0.0,90,0.00,CLR,,0.00,WeatherDisplay:10.37,2013-09-11 12:49:00,
2013-09-11 07:54:00,62.9,59.9,30.02,SSW,192,0.0,0.0,90,0.00,CLR,,0.00,WeatherDisplay:10.37,2013-09-11 12:54:00,
2013-09-11 07:59:00,63.2,60.2,30.02,SSW,192,1.1,1.1,90,0.00,CLR,,0.00,WeatherDisplay:10.37,2013-09-11 12:59:00,
2013-09-11 08:04:00,63.7,60.7,30.02,SSW,192,3.5,3.5,90,0.00,CLR,,0.00,WeatherDisplay:10.37,2013-09-11 13:04:00,
2013-09-11 08:09:00,64.5,61.2,30.02,SSW,192,3.5,3.5,89,0.00,CLR,,0.00,WeatherDisplay:10.37,2013-09-11 13:09:00,
2013-09-11 08:14:00,65.2,61.6,30.02,SSW,192,2.3,2.3,88,0.00,CLR,,0.00,WeatherDisplay:10.37,2013-09-11 13:14:00,
2013-09-11 08:19:00,65.6,61.3,30.02,SSW,192,2.0,0.0,86,0.00,CLR,,0.00,WeatherDisplay:10.37,2013-09-11 13:19:00,
2013-09-11 08:24:00,66.1,61.8,30.02,SSW,192,3.5,3.5,86,0.00,CLR,,0.00,WeatherDisplay:10.37,2013-09-11 13:24:00,
2013-09-11 08:29:00,66.3,61.7,30.02,South,190,3.5,3.5,85,0.00,CLR,,0.00,WeatherDisplay:10.37,2013-09-11 13:29:00,
2013-09-11 08:34:00,66.8,61.8,30.02,South,188,5.8,5.8,84,0.00,CLR,,0.00,WeatherDisplay:10.37,2013-09-11 13:34:00,
2013-09-11 08:39:00,67.8,62.1,30.02,SSW,200,1.1,1.1,82,0.00,CLR,,0.00,WeatherDisplay:10.37,2013-09-11 13:39:00,
2013-09-11 08:44:00,68.3,62.2,30.02,SSW,200,2.3,2.3,81,0.00,CLR,,0.00,WeatherDisplay:10.37,2013-09-11 13:44:00,
2013-09-11 08:49:00,68.6,61.8,30.02,SW,234,10.4,10.4,79,0.00,CLR,,0.00,WeatherDisplay:10.37,2013-09-11 13:49:00,
2013-09-11 08:54:00,69.4,61.5,30.02,SW,220,3.5,3.5,76,0.00,CLR,,0.00,WeatherDisplay:10.37,2013-09-11 13:54:00,
2013-09-11 08:59:00,70.3,61.2,30.02,SW,215,3.5,3.5,73,0.00,CLR,,0.00,WeatherDisplay:10.37,2013-09-11 13:59:00,
2013-09-11 09:04:00,70.8,61.3,30.02,SSW,213,1.1,1.1,72,0.00,CLR,,0.00,WeatherDisplay:10.37,2013-09-11 14:04:00,
2013-09-11 09:09:00,71.3,61.0,30.02,WSW,249,4.6,4.6,70,0.00,CLR,,0.00,WeatherDisplay:10.37,2013-09-11 14:09:00,
2013-09-11 09:14:00,71.6,60.9,30.02,WSW,254,4.6,4.6,69,0.00,CLR,,0.00,WeatherDisplay:10.37,2013-09-11 14:14:00,
2013-09-11 09:19:00,72.1,60.5,30.02,SW,219,4.6,4.6,67,0.00,CLR,,0.00,WeatherDisplay:10.37,2013-09-11 14:19:00,
2013-09-11 09:24:00,72.5,60.1,30.02,SSW,192,3.5,3.5,65,0.00,CLR,,0.00,WeatherDisplay:10.37,2013-09-11 14:24:00,
2013-09-11 09:29:00,72.8,60.3,30.02,SW,222,11.5,11.5,65,0.00,CLR,,0.00,WeatherDisplay:10.37,2013-09-11 14:29:00,
2013-09-11 09:34:00,73.2,60.3,30.01,SW,226,5.8,5.8,64,0.00,CLR,,0.00,WeatherDisplay:10.37,2013-09-11 14:34:00,
2013-09-11 09:39:00,73.3,60.4,30.01,NNW,331,9.2,9.2,64,0.00,CLR,,0.00,WeatherDisplay:10.37,2013-09-11 14:39:00,
2013-09-11 09:44:00,73.7,60.8,30.01,NW,305,6.0,6.0,64,0.00,CLR,,0.00,WeatherDisplay:10.37,2013-09-11 14:44:00,
2013-09-11 09:49:00,74.0,61.0,30.01,WSW,243,0.0,0.0,64,0.00,CLR,,0.00,WeatherDisplay:10.37,2013-09-11 14:49:00,
2013-09-11 09:54:00,74.4,61.0,30.01,WSW,252,3.5,3.5,63,0.00,CLR,,0.00,WeatherDisplay:10.37,2013-09-11 14:54:00,
2013-09-11 09:59:00,74.7,61.7,30.01,WSW,244,1.1,0.0,64,0.00,CLR,,0.00,WeatherDisplay:10.37,2013-09-11 14:59:00,
2013-09-11 10:04:00,75.3,61.4,30.01,SSW,202,5.8,5.8,62,0.00,CLR,,0.00,WeatherDisplay:10.37,2013-09-11 15:04:00,
2013-09-11 10:09:00,75.6,60.7,30.01,WSW,246,2.3,2.3,60,0.00,CLR,,0.00,WeatherDisplay:10.37,2013-09-11 15:09:00,
2013-09-11 10:14:00,76.0,60.6,30.01,WSW,242,5.8,5.8,59,0.00,CLR,,0.00,WeatherDisplay:10.37,2013-09-11 15:14:00,
2013-09-11 10:19:00,76.5,61.1,30.01,West,263,3.5,3.5,59,0.00,CLR,,0.00,WeatherDisplay:10.37,2013-09-11 15:19:00,
2013-09-11 10:24:00,77.0,61.1,30.01,NW,304,5.8,5.8,58,0.00,CLR,,0.00,WeatherDisplay:10.37,2013-09-11 15:24:00,
2013-09-11 10:29:00,77.4,60.5,30.01,SSW,203,9.2,9.2,56,0.00,CLR,,0.00,WeatherDisplay:10.37,2013-09-11 15:29:00,
2013-09-11 10:34:00,77.7,60.8,30.01,SW,236,5.8,5.8,56,0.00,CLR,,0.00,WeatherDisplay:10.37,2013-09-11 15:34:00,
2013-09-11 10:39:00,77.9,60.4,30.02,West,273,4.0,4.0,55,0.00,CLR,,0.00,WeatherDisplay:10.37,2013-09-11 15:39:00,
2013-09-11 10:44:00,78.3,60.8,30.02,SW,219,3.5,3.5,55,0.00,CLR,,0.00,WeatherDisplay:10.37,2013-09-11 15:44:00,
2013-09-11 10:49:00,78.6,61.1,30.02,South,180,2.3,2.3,55,0.00,CLR,,0.00,WeatherDisplay:10.37,2013-09-11 15:49:00,
2013-09-11 10:54:00,79.2,61.1,30.02,WNW,301,3.5,3.5,54,0.00,CLR,,0.00,WeatherDisplay:10.37,2013-09-11 15:54:00,
2013-09-11 10:59:00,79.6,61.0,30.02,WNW,291,3.5,3.5,53,0.00,CLR,,0.00,WeatherDisplay:10.37,2013-09-11 15:59:00,
2013-09-11 11:04:00,79.8,61.1,30.02,WNW,293,3.5,3.5,53,0.00,CLR,,0.00,WeatherDisplay:10.37,2013-09-11 16:04:00,
2013-09-11 11:09:00,79.6,61.5,30.02,WNW,291,5.0,5.0,54,0.00,CLR,,0.00,WeatherDisplay:10.37,2013-09-11 16:09:00,
2013-09-11 11:14:00,79.8,61.7,30.02,WNW,291,2.3,2.3,54,0.00,CLR,,0.00,WeatherDisplay:10.37,2013-09-11 16:14:00,
2013-09-11 11:19:00,79.8,59.5,30.02,WNW,294,3.5,3.5,50,0.00,CLR,,0.00,WeatherDisplay:10.37,2013-09-11 16:19:00,
2013-09-11 11:24:00,80.1,59.8,30.02,NW,309,5.0,5.0,50,0.00,CLR,,0.00,WeatherDisplay:10.37,2013-09-11 16:24:00,
2013-09-11 11:29:00,80.3,60.0,30.02,West,280,5.8,5.8,50,0.00,CLR,,0.00,WeatherDisplay:10.37,2013-09-11 16:29:00,
2013-09-11 11:34:00,80.7,59.8,30.02,West,261,1.1,1.1,49,0.00,CLR,,0.00,WeatherDisplay:10.37,2013-09-11 16:34:00,
2013-09-11 11:39:00,80.9,58.8,30.02,WNW,286,5.0,5.0,47,0.00,CLR,,0.00,WeatherDisplay:10.37,2013-09-11 16:39:00,
2013-09-11 11:44:00,81.4,58.6,30.02,NW,321,6.9,6.9,46,0.00,CLR,,0.00,WeatherDisplay:10.37,2013-09-11 16:44:00,
2013-09-11 11:49:00,81.1,59.0,30.02,SW,228,5.8,5.8,47,0.00,CLR,,0.00,WeatherDisplay:10.37,2013-09-11 16:49:00,
2013-09-11 11:54:00,81.4,59.2,30.02,South,190,6.9,6.9,47,0.00,CLR,,0.00,WeatherDisplay:10.37,2013-09-11 16:54:00,
2013-09-11 11:59:00,81.6,58.2,30.02,North,11,9.2,9.2,45,0.00,CLR,,0.00,WeatherDisplay:10.37,2013-09-11 16:59:00,
2013-09-11 12:04:00,80.9,58.8,30.02,WNW,299,3.5,3.5,47,0.00,CLR,,0.00,WeatherDisplay:10.37,2013-09-11 17:04:00,
2013-09-11 12:09:00,81.4,58.6,30.02,WSW,246,9.0,9.0,46,0.00,CLR,,0.00,WeatherDisplay:10.37,2013-09-11 17:09:00,
2013-09-11 12:14:00,81.8,58.4,30.02,South,186,2.3,2.3,45,0.00,CLR,,0.00,WeatherDisplay:10.37,2013-09-11 17:14:00,
2013-09-11 12:19:00,82.0,57.9,30.01,WSW,254,9.2,9.2,44,0.00,CLR,,0.00,WeatherDisplay:10.37,2013-09-11 17:19:00,
2013-09-11 12:24:00,82.0,57.3,30.01,NW,321,8.1,8.1,43,0.00,CLR,,0.00,WeatherDisplay:10.37,2013-09-11 17:24:00,
2013-09-11 12:29:00,82.0,59.2,30.01,WNW,297,3.5,3.5,46,0.00,CLR,,0.00,WeatherDisplay:10.37,2013-09-11 17:29:00,
2013-09-11 12:34:00,82.2,56.8,30.01,WSW,252,9.2,9.2,42,0.00,CLR,,0.00,WeatherDisplay:10.37,2013-09-11 17:34:00,
2013-09-11 12:39:00,82.6,57.2,30.01,WSW,240,10.4,10.4,42,0.00,CLR,,0.00,WeatherDisplay:10.37,2013-09-11 17:39:00,
2013-09-11 12:44:00,82.8,57.4,30.01,WNW,286,6.9,6.9,42,0.00,CLR,,0.00,WeatherDisplay:10.37,2013-09-11 17:44:00,
2013-09-11 12:49:00,83.0,56.2,30.01,WSW,246,10.4,10.4,40,0.00,CLR,,0.00,WeatherDisplay:10.37,2013-09-11 17:49:00,
2013-09-11 12:54:00,82.6,56.5,30.01,NNW,333,11.5,11.5,41,0.00,CLR,,0.00,WeatherDisplay:10.37,2013-09-11 17:54:00,
2013-09-11 12:59:00,82.4,55.7,30.01,NE,42,11.5,11.5,40,0.00,CLR,,0.00,WeatherDisplay:10.37,2013-09-11 17:59:00,
2013-09-11 13:04:00,82.6,55.8,30.01,NNE,15,11.5,11.5,40,0.00,CLR,,0.00,WeatherDisplay:10.37,2013-09-11 18:04:00,
2013-09-11 13:09:00,83.2,56.4,30.01,NNW,331,9.2,9.2,40,0.00,CLR,,0.00,WeatherDisplay:10.37,2013-09-11 18:09:00,
2013-09-11 13:14:00,84.0,56.4,30.01,WNW,297,11.5,11.5,39,0.00,CLR,,0.00,WeatherDisplay:10.37,2013-09-11 18:14:00,
2013-09-11 13:19:00,83.4,55.8,30.01,North,349,6.9,6.9,39,0.00,CLR,,0.00,WeatherDisplay:10.37,2013-09-11 18:19:00,
2013-09-11 13:24:00,83.6,57.4,30.01,WNW,301,3.5,3.5,41,0.00,CLR,,0.00,WeatherDisplay:10.37,2013-09-11 18:24:00,
2013-09-11 13:29:00,84.0,57.8,30.01,North,5,9.2,9.2,41,0.00,CLR,,0.00,WeatherDisplay:10.37,2013-09-11 18:29:00,
2013-09-11 13:35:00,83.2,57.1,30.01,NNE,28,6.9,6.9,41,0.00,CLR,,0.00,WeatherDisplay:10.37,2013-09-11 18:35:00,
2013-09-11 13:40:00,82.4,57.0,30.01,NNW,348,8.1,8.1,42,0.00,CLR,,0.00,WeatherDisplay:10.37,2013-09-11 18:40:00,
2013-09-11 13:45:00,82.0,56.6,30.01,SW,215,3.5,3.5,42,0.00,CLR,,0.00,WeatherDisplay:10.37,2013-09-11 18:45:00,
2013-09-11 13:50:00,82.2,56.2,30.01,NNW,331,6.9,6.9,41,0.00,SCT,,0.00,WeatherDisplay:10.37,2013-09-11 18:50:00,
2013-09-11 13:55:00,81.6,56.9,30.01,WNW,285,9.0,9.0,43,0.00,SCT,,0.00,WeatherDisplay:10.37,2013-09-11 18:55:00,
2013-09-11 14:00:00,81.6,56.3,30.01,NW,323,4.6,4.7,42,0.00,SCT,,0.00,WeatherDisplay:10.37,2013-09-11 19:00:00,
2013-09-11 14:05:00,82.4,56.3,30.01,NNE,24,10.4,10.4,41,0.00,SCT,,0.00,WeatherDisplay:10.37,2013-09-11 19:05:00,
2013-09-11 14:10:00,82.4,57.7,30.01,NNW,346,11.5,11.5,43,0.00,SCT,,0.00,WeatherDisplay:10.37,2013-09-11 19:10:00,
2013-09-11 14:15:00,82.2,56.8,30.01,NNE,21,11.5,11.5,42,0.00,SCT,,0.00,WeatherDisplay:10.37,2013-09-11 19:15:00,
2013-09-11 14:20:00,81.4,57.4,30.01,WNW,286,9.2,9.2,44,0.00,SCT,,0.00,WeatherDisplay:10.37,2013-09-11 19:20:00,
2013-09-11 14:25:00,81.4,57.4,30.01,North,360,10.4,10.4,44,0.00,SCT,,0.00,WeatherDisplay:10.37,2013-09-11 19:25:00,
2013-09-11 14:30:00,81.4,57.4,30.01,North,351,12.0,12.0,44,0.00,SCT,,0.00,WeatherDisplay:10.37,2013-09-11 19:30:00,
2013-09-11 14:35:00,81.1,57.1,30.01,North,355,11.5,11.5,44,0.00,SCT,,0.00,WeatherDisplay:10.37,2013-09-11 19:35:00,
2013-09-11 14:40:00,80.7,56.8,30.01,NNW,346,11.5,11.5,44,0.00,SCT,,0.00,WeatherDisplay:10.37,2013-09-11 19:40:00,
2013-09-11 14:45:00,81.1,56.5,30.01,West,281,10.4,10.4,43,0.00,SCT,,0.00,WeatherDisplay:10.37,2013-09-11 19:45:00,
2013-09-11 14:50:00,81.6,54.2,30.01,NNW,338,9.2,9.2,39,0.00,SCT,,0.00,WeatherDisplay:10.37,2013-09-11 19:50:00,
2013-09-11 14:55:00,81.6,52.8,30.01,NNW,333,11.5,11.5,37,0.00,SCT,,0.00,WeatherDisplay:10.37,2013-09-11 19:55:00,
2013-09-11 15:00:00,81.8,53.7,30.01,WNW,294,3.5,4.7,38,0.00,SCT,,0.00,WeatherDisplay:10.37,2013-09-11 20:00:00,
2013-09-11 15:05:00,82.4,52.8,30.01,North,355,4.6,4.6,36,0.00,SCT,,0.00,WeatherDisplay:10.37,2013-09-11 20:05:00,
2013-09-11 15:10:00,82.6,53.7,30.01,NW,319,3.5,3.5,37,0.00,SCT,,0.00,WeatherDisplay:10.37,2013-09-11 20:10:00,
2013-09-11 15:15:00,82.4,52.8,30.01,North,355,10.4,10.4,36,0.00,SCT,,0.00,WeatherDisplay:10.37,2013-09-11 20:15:00,
2013-09-11 15:20:00,82.2,53.3,30.01,NNE,20,11.5,11.5,37,0.00,SCT,,0.00,WeatherDisplay:10.37,2013-09-11 20:20:00,
2013-09-11 15:25:00,82.4,52.8,30.01,WNW,292,4.0,4.2,36,0.00,SCT,,0.00,WeatherDisplay:10.37,2013-09-11 20:25:00,
2013-09-11 15:30:00,82.6,52.9,30.01,NW,323,12.7,12.7,36,0.00,SCT,,0.00,WeatherDisplay:10.37,2013-09-11 20:30:00,
2013-09-11 15:35:00,82.0,53.2,30.00,North,5,10.4,10.4,37,0.00,CLR,,0.00,WeatherDisplay:10.37,2013-09-11 20:35:00,
2013-09-11 15:40:00,81.8,52.2,30.00,NW,326,9.2,9.2,36,0.00,CLR,,0.00,WeatherDisplay:10.37,2013-09-11 20:40:00,
2013-09-11 15:45:00,82.0,52.4,30.00,NNW,342,4.0,4.7,36,0.00,CLR,,0.00,WeatherDisplay:10.37,2013-09-11 20:45:00,
2013-09-11 15:50:00,82.0,51.6,30.01,NW,308,8.1,8.1,35,0.00,CLR,,0.00,WeatherDisplay:10.37,2013-09-11 20:50:00,
2013-09-11 15:55:00,82.2,53.3,30.01,NNW,343,2.3,2.3,37,0.00,CLR,,0.00,WeatherDisplay:10.37,2013-09-11 20:55:00,
2013-09-11 16:00:00,82.6,53.7,30.01,NW,319,11.5,11.5,37,0.00,CLR,,0.00,WeatherDisplay:10.37,2013-09-11 21:00:00,
2013-09-11 16:05:00,82.4,50.4,30.01,North,9,6.9,6.9,33,0.00,CLR,,0.00,WeatherDisplay:10.37,2013-09-11 21:05:00,
2013-09-11 16:10:00,82.0,50.9,30.01,North,5,10.4,10.4,34,0.00,CLR,,0.00,WeatherDisplay:10.37,2013-09-11 21:10:00,
2013-09-11 16:15:00,82.0,51.6,30.01,NNW,338,5.8,5.8,35,0.00,CLR,,0.00,WeatherDisplay:10.37,2013-09-11 21:15:00,
2013-09-11 16:20:00,82.2,51.8,30.02,NW,326,12.7,12.7,35,0.00,CLR,,0.00,WeatherDisplay:10.37,2013-09-11 21:20:00,
2013-09-11 16:25:00,82.0,51.6,30.01,North,5,5.8,5.8,35,0.00,CLR,,0.00,WeatherDisplay:10.37,2013-09-11 21:25:00,
2013-09-11 16:30:00,81.8,51.5,30.01,WNW,294,13.8,13.8,35,0.00,CLR,,0.00,WeatherDisplay:10.37,2013-09-11 21:30:00,
2013-09-11 16:35:00,82.2,51.0,30.02,NNW,338,5.8,5.8,34,0.00,CLR,,0.00,WeatherDisplay:10.37,2013-09-11 21:35:00,
2013-09-11 16:40:00,82.2,51.0,30.02,NW,312,2.0,10.0,34,0.00,CLR,,0.00,WeatherDisplay:10.37,2013-09-11 21:40:00,
2013-09-11 16:45:00,82.2,50.2,30.02,WNW,294,4.6,4.6,33,0.00,CLR,,0.00,WeatherDisplay:10.37,2013-09-11 21:45:00,
2013-09-11 16:50:00,82.2,50.2,30.02,NW,318,3.0,10.0,33,0.00,SCT,,0.00,WeatherDisplay:10.37,2013-09-11 21:50:00,
2013-09-11 16:55:00,82.0,50.9,30.02,WSW,244,10.4,10.4,34,0.00,SCT,,0.00,WeatherDisplay:10.37,2013-09-11 21:55:00,
2013-09-11 17:00:00,82.4,50.4,30.02,North,10,4.0,4.0,33,0.00,SCT,,0.00,WeatherDisplay:10.37,2013-09-11 22:00:00,
2013-09-11 17:05:00,81.8,48.2,30.01,NNW,336,9.2,9.2,31,0.00,SCT,,0.00,WeatherDisplay:10.37,2013-09-11 22:05:00,
2013-09-11 17:10:00,81.4,47.9,30.01,North,349,2.0,12.0,31,0.00,SCT,,0.00,WeatherDisplay:10.37,2013-09-11 22:10:00,
2013-09-11 17:15:00,81.3,48.7,30.01,NNW,336,3.0,10.0,32,0.00,SCT,,0.00,WeatherDisplay:10.37,2013-09-11 22:15:00,
2013-09-11 17:20:00,81.1,48.4,30.01,NW,311,3.5,3.5,32,0.00,SCT,,0.00,WeatherDisplay:10.37,2013-09-11 22:20:00,
2013-09-11 17:25:00,81.1,49.3,30.01,NNW,337,2.0,10.0,33,0.00,SCT,,0.00,WeatherDisplay:10.37,2013-09-11 22:25:00,
2013-09-11 17:30:00,81.1,48.4,30.01,NW,325,3.5,3.5,32,0.00,SCT,,0.00,WeatherDisplay:10.37,2013-09-11 22:30:00,
2013-09-11 17:35:00,81.1,48.4,30.01,NNW,341,3.0,12.0,32,0.00,SCT,,0.00,WeatherDisplay:10.37,2013-09-11 22:35:00,
2013-09-11 17:40:00,80.9,49.1,30.01,North,355,4.6,4.6,33,0.00,CLR,,0.00,WeatherDisplay:10.37,2013-09-11 22:40:00,
2013-09-11 17:45:00,80.9,49.1,30.01,NNW,336,3.5,3.5,33,0.00,CLR,,0.00,WeatherDisplay:10.37,2013-09-11 22:45:00,
2013-09-11 17:50:00,80.9,49.1,30.01,NNW,329,3.5,3.5,33,0.00,CLR,,0.00,WeatherDisplay:10.37,2013-09-11 22:50:00,
2013-09-11 17:55:00,81.1,49.3,30.01,NW,317,2.0,9.0,33,0.00,CLR,,0.00,WeatherDisplay:10.37,2013-09-11 22:55:00,
2013-09-11 18:00:00,80.9,49.1,30.01,North,360,5.0,5.0,33,0.00,CLR,,0.00,WeatherDisplay:10.37,2013-09-11 23:00:00,
2013-09-11 18:05:00,80.7,49.7,30.01,NNW,332,0.0,7.0,34,0.00,CLR,,0.00,WeatherDisplay:10.37,2013-09-11 23:05:00,
2013-09-11 18:10:00,80.5,49.5,30.01,NNW,346,1.1,1.8,34,0.00,CLR,,0.00,WeatherDisplay:10.37,2013-09-11 23:10:00,
2013-09-11 18:15:00,80.3,49.4,30.01,NNW,335,1.1,1.1,34,0.00,CLR,,0.00,WeatherDisplay:10.37,2013-09-11 23:15:00,
2013-09-11 18:20:00,80.5,49.5,30.01,NNW,333,12.7,12.7,34,0.00,CLR,,0.00,WeatherDisplay:10.37,2013-09-11 23:20:00,
2013-09-11 18:25:00,79.9,49.0,30.01,WNW,302,5.8,5.8,34,0.00,CLR,,0.00,WeatherDisplay:10.37,2013-09-11 23:25:00,
2013-09-11 18:30:00,79.6,50.3,30.01,West,279,3.5,3.5,36,0.00,CLR,,0.00,WeatherDisplay:10.37,2013-09-11 23:30:00,
2013-09-11 18:35:00,79.2,51.4,30.00,West,279,0.0,0.0,38,0.00,CLR,,0.00,WeatherDisplay:10.37,2013-09-11 23:35:00,
2013-09-11 18:40:00,78.8,51.0,30.00,West,279,1.1,1.1,38,0.00,CLR,,0.00,WeatherDisplay:10.37,2013-09-11 23:40:00,
2013-09-11 18:45:00,78.5,51.5,30.00,WNW,297,3.5,3.5,39,0.00,CLR,,0.00,WeatherDisplay:10.37,2013-09-11 23:45:00,
2013-09-11 18:50:00,78.3,51.3,30.00,WNW,297,0.0,0.0,39,0.00,CLR,,0.00,WeatherDisplay:10.37,2013-09-11 23:50:00,
2013-09-11 18:55:00,78.1,52.5,30.00,WNW,297,0.0,0.0,41,0.00,CLR,,0.00,WeatherDisplay:10.37,2013-09-11 23:55:00,
2013-09-11 19:00:00,77.7,52.1,30.00,WNW,297,0.0,0.0,41,0.00,CLR,,0.00,WeatherDisplay:10.37,2013-09-12 00:00:00,
2013-09-11 19:05:00,77.5,53.2,30.00,WNW,297,0.0,0.0,43,0.00,CLR,,0.00,WeatherDisplay:10.37,2013-09-12 00:05:00,
2013-09-11 19:10:00,77.0,53.4,30.00,WNW,297,0.0,0.0,44,0.00,CLR,,0.00,WeatherDisplay:10.37,2013-09-12 00:10:00,
2013-09-11 19:15:00,76.7,53.1,30.00,WNW,297,0.0,0.0,44,0.00,CLR,,0.00,WeatherDisplay:10.37,2013-09-12 00:15:00,
2013-09-11 19:20:00,76.1,53.8,30.00,WNW,297,0.0,0.0,46,0.00,CLR,,0.00,WeatherDisplay:10.37,2013-09-12 00:20:00,
2013-09-11 19:25:00,75.8,54.1,30.00,WNW,297,0.0,0.0,47,0.00,CLR,,0.00,WeatherDisplay:10.37,2013-09-12 00:25:00,
2013-09-11 19:30:00,75.3,54.3,30.00,WNW,297,0.0,0.0,48,0.00,CLR,,0.00,WeatherDisplay:10.37,2013-09-12 00:30:00,
2013-09-11 19:35:00,74.7,54.3,30.00,WNW,297,0.0,0.0,49,0.00,CLR,,0.00,WeatherDisplay:10.37,2013-09-12 00:35:00,
2013-09-11 19:40:00,74.2,54.9,30.00,WNW,297,0.0,0.0,51,0.00,CLR,,0.00,WeatherDisplay:10.37,2013-09-12 00:40:00,
2013-09-11 19:45:00,73.7,53.9,30.00,WNW,297,0.0,0.0,50,0.00,CLR,,0.00,WeatherDisplay:10.37,2013-09-12 00:45:00,
2013-09-11 19:50:00,73.2,54.0,30.00,WNW,297,0.0,0.0,51,0.00,CLR,,0.00,WeatherDisplay:10.37,2013-09-12 00:50:00,
2013-09-11 19:55:00,72.8,55.2,30.00,WNW,297,0.0,0.0,54,0.00,CLR,,0.00,WeatherDisplay:10.37,2013-09-12 00:55:00,
2013-09-11 20:00:00,72.1,55.0,30.00,WNW,297,0.0,0.0,55,0.00,CLR,,0.00,WeatherDisplay:10.37,2013-09-12 01:00:00,
2013-09-11 20:05:00,71.5,55.5,30.00,WNW,297,0.0,0.0,57,0.00,CLR,,0.00,WeatherDisplay:10.37,2013-09-12 01:05:00,
2013-09-11 20:10:00,70.9,55.9,30.00,WNW,297,0.0,0.0,59,0.00,CLR,,0.00,WeatherDisplay:10.37,2013-09-12 01:10:00,
2013-09-11 20:15:00,70.4,55.4,30.00,WNW,297,0.0,0.0,59,0.00,CLR,,0.00,WeatherDisplay:10.37,2013-09-12 01:15:00,
2013-09-11 20:20:00,69.9,54.9,30.00,WNW,297,0.0,0.0,59,0.00,CLR,,0.00,WeatherDisplay:10.37,2013-09-12 01:20:00,
2013-09-11 20:25:00,69.6,55.1,30.00,WNW,297,0.0,0.0,60,0.00,CLR,,0.00,WeatherDisplay:10.37,2013-09-12 01:25:00,
2013-09-11 20:30:00,69.3,55.2,30.00,WNW,297,0.0,0.0,61,0.00,CLR,,0.00,WeatherDisplay:10.37,2013-09-12 01:30:00,
2013-09-11 20:35:00,68.8,54.8,30.01,WNW,297,0.0,0.0,61,0.00,CLR,,0.00,WeatherDisplay:10.37,2013-09-12 01:35:00,
2013-09-11 20:41:00,68.4,54.9,30.01,WNW,297,0.0,0.0,62,0.00,CLR,,0.00,WeatherDisplay:10.37,2013-09-12 01:41:00,
2013-09-11 20:46:00,68.3,54.8,30.02,WNW,297,0.0,0.0,62,0.00,CLR,,0.00,WeatherDisplay:10.37,2013-09-12 01:46:00,
2013-09-11 20:51:00,68.1,54.1,30.02,WNW,297,0.0,0.0,61,0.00,CLR,,0.00,WeatherDisplay:10.37,2013-09-12 01:51:00,
2013-09-11 20:56:00,68.3,53.9,30.02,WNW,297,0.0,0.0,60,0.00,CLR,,0.00,WeatherDisplay:10.37,2013-09-12 01:56:00,
2013-09-11 21:01:00,68.4,54.0,30.02,WNW,297,0.0,0.0,60,0.00,CLR,,0.00,WeatherDisplay:10.37,2013-09-12 02:01:00,
2013-09-11 21:06:00,68.6,53.7,30.02,WNW,297,0.0,0.0,59,0.00,CLR,,0.00,WeatherDisplay:10.37,2013-09-12 02:06:00,
2013-09-11 21:11:00,68.6,53.2,30.02,WNW,297,0.0,0.0,58,0.00,CLR,,0.00,WeatherDisplay:10.37,2013-09-12 02:11:00,
2013-09-11 21:16:00,68.8,53.4,30.02,WNW,297,0.0,0.0,58,0.00,CLR,,0.00,WeatherDisplay:10.37,2013-09-12 02:16:00,
2013-09-11 21:21:00,68.8,52.9,30.02,WNW,297,1.1,0.0,57,0.00,CLR,,0.00,WeatherDisplay:10.37,2013-09-12 02:21:00,
2013-09-11 21:26:00,68.9,53.0,30.02,WNW,297,0.0,0.0,57,0.00,CLR,,0.00,WeatherDisplay:10.37,2013-09-12 02:26:00,
2013-09-11 21:31:00,69.1,52.7,30.02,WNW,297,1.1,1.1,56,0.00,CLR,,0.00,WeatherDisplay:10.37,2013-09-12 02:31:00,
2013-09-11 21:36:00,69.3,52.9,30.02,WNW,297,0.0,0.0,56,0.00,CLR,,0.00,WeatherDisplay:10.37,2013-09-12 02:36:00,
2013-09-11 21:41:00,69.4,52.5,30.02,WNW,297,1.1,1.1,55,0.00,CLR,,0.00,WeatherDisplay:10.37,2013-09-12 02:41:00,
2013-09-11 21:46:00,69.4,53.0,30.02,West,270,0.0,0.0,56,0.00,CLR,,0.00,WeatherDisplay:10.37,2013-09-12 02:46:00,
2013-09-11 21:51:00,69.6,52.7,30.02,WNW,302,1.1,1.1,55,0.00,CLR,,0.00,WeatherDisplay:10.37,2013-09-12 02:51:00,
2013-09-11 21:56:00,69.8,52.9,30.02,West,281,2.3,2.3,55,0.00,CLR,,0.00,WeatherDisplay:10.37,2013-09-12 02:56:00,
2013-09-11 22:01:00,69.9,53.0,30.03,SW,215,1.1,1.1,55,0.00,CLR,,0.00,WeatherDisplay:10.37,2013-09-12 03:01:00,
2013-09-11 22:06:00,70.1,53.2,30.03,WNW,289,3.5,3.5,55,0.00,CLR,,0.00,WeatherDisplay:10.37,2013-09-12 03:06:00,
2013-09-11 22:11:00,70.1,52.7,30.03,NW,321,3.5,3.5,54,0.00,CLR,,0.00,WeatherDisplay:10.37,2013-09-12 03:11:00,
2013-09-11 22:16:00,70.4,53.0,30.03,NW,322,2.3,2.3,54,0.00,CLR,,0.00,WeatherDisplay:10.37,2013-09-12 03:16:00,
2013-09-11 22:21:00,70.6,53.1,30.03,WNW,296,4.6,4.6,54,0.00,CLR,,0.00,WeatherDisplay:10.37,2013-09-12 03:21:00,
2013-09-11 22:26:00,70.6,53.1,30.03,WNW,294,6.9,6.9,54,0.00,CLR,,0.00,WeatherDisplay:10.37,2013-09-12 03:26:00,
2013-09-11 22:31:00,70.9,52.9,30.04,West,275,5.0,5.0,53,0.00,CLR,,0.00,WeatherDisplay:10.37,2013-09-12 03:31:00,
2013-09-11 22:36:00,71.1,53.1,30.04,North,360,5.8,5.8,53,0.00,CLR,,0.00,WeatherDisplay:10.37,2013-09-12 03:36:00,
2013-09-11 22:41:00,71.1,53.1,30.04,West,277,3.5,3.5,53,0.00,CLR,,0.00,WeatherDisplay:10.37,2013-09-12 03:41:00,
2013-09-11 22:46:00,70.9,52.4,30.04,North,355,11.5,11.5,52,0.00,CLR,,0.00,WeatherDisplay:10.37,2013-09-12 03:46:00,
2013-09-11 22:51:00,70.9,52.4,30.04,NNE,17,3.5,3.5,52,0.00,CLR,,0.00,WeatherDisplay:10.37,2013-09-12 03:51:00,
2013-09-11 22:56:00,70.9,51.9,30.04,North,5,6.0,6.0,51,0.00,CLR,,0.00,WeatherDisplay:10.37,2013-09-12 03:56:00,
2013-09-11 23:01:00,70.9,51.3,30.05,WNW,298,6.0,6.0,50,0.00,CLR,,0.00,WeatherDisplay:10.37,2013-09-12 04:01:00,
2013-09-11 23:02:00,70.9,51.3,30.05,NE,34,5.0,5.0,50,0.00,CLR,,0.00,WeatherDisplay:10.37,2013-09-12 04:02:00,
2013-09-11 23:07:00,70.9,50.8,30.05,NNE,32,6.9,6.9,49,0.00,CLR,,0.00,WeatherDisplay:10.37,2013-09-12 04:07:00,
2013-09-11 23:12:00,70.8,50.7,30.05,North,360,5.8,5.8,49,0.00,CLR,,0.00,WeatherDisplay:10.37,2013-09-12 04:12:00,
2013-09-11 23:17:00,70.6,50.5,30.05,NW,326,4.6,4.6,49,0.00,CLR,,0.00,WeatherDisplay:10.37,2013-09-12 04:17:00,
2013-09-11 23:22:00,70.6,50.5,30.05,North,11,4.6,4.6,49,0.00,CLR,,0.00,WeatherDisplay:10.37,2013-09-12 04:22:00,
2013-09-11 23:27:00,70.3,49.7,30.05,North,355,5.8,5.8,48,0.00,CLR,,0.00,WeatherDisplay:10.37,2013-09-12 04:27:00,
2013-09-11 23:32:00,70.1,49.5,30.05,NNE,15,7.0,7.0,48,0.00,CLR,,0.00,WeatherDisplay:10.37,2013-09-12 04:32:00,
2013-09-11 23:37:00,69.8,49.2,30.05,NNW,339,10.4,10.4,48,0.00,CLR,,0.00,WeatherDisplay:10.37,2013-09-12 04:37:00,
2013-09-11 23:42:00,69.6,49.0,30.05,North,349,4.6,4.6,48,0.00,CLR,,0.00,WeatherDisplay:10.37,2013-09-12 04:42:00,
2013-09-11 23:47:00,69.6,49.0,30.05,NNE,18,9.2,9.2,48,0.00,CLR,,0.00,WeatherDisplay:10.37,2013-09-12 04:47:00,
2013-09-11 23:52:00,69.3,48.8,30.05,NNW,338,4.6,4.6,48,0.00,CLR,,0.00,WeatherDisplay:10.37,2013-09-12 04:52:00,
2013-09-11 23:57:00,69.3,48.2,30.05,NW,305,8.1,8.1,47,0.00,CLR,,0.00,WeatherDisplay:10.37,2013-09-12 04:57:00,